Hayden, CO

4:20 AM MDT on June 27, 2017 (GMT -0600)
Yampa Valley

Weather History for KHDN - October, 2011

Change the Weather History Date:

Monday, October 3, 2011

  Actual Average Record
Temperature  
Mean Temperature 58 °F -  
Max Temperature 73 °F 66 °F 80 °F (1948)
Min Temperature 44 °F 34 °F 18 °F (1959)
Degree Days  
Heating Degree Days 6    
Growing Degree Days 8 (Base 50)    
Moisture  
Dew Point 37 °F    
Average Humidity 51    
Maximum Humidity 77    
Minimum Humidity 23    
Precipitation  
Precipitation 0.00 in - - ()
Sea Level Pressure  
Sea Level Pressure 30.24 in    
Wind  
Wind Speed 9 mph (SE)    
Max Wind Speed 18 mph    
Max Gust Speed 30 mph    
Visibility 10 miles    
Events      
Averages and records for this station are not official NWS values.
T = Trace of Precipitation, MM = Missing Value Source: NWS Daily Summary

Daily Weather History Graph

Daily Weather History Graph

Search for Another Location

Airport or City:

Trip Planner

Search our weather history database for the weather conditions in past years. The results will help you decide how hot, cold, wet, or windy it might be!

Date:

Astronomy

Oct. 03, 2011 Rise Set
Actual Time 7:07 AM MDT 6:48 PM MDT
Civil Twilight 6:39 AM MDT 7:15 PM MDT
Nautical Twilight 6:08 AM MDT 7:46 PM MDT
Astronomical Twilight 5:36 AM MDT 8:18 PM MDT
Moon 2:08 PM MDT (10/3) 11:53 PM MDT (10/3)
Length of Visible Light 12h 35m
Length of Day
11h 40m
Waxing Crescent, 46% of the Moon is Illuminated
Oct 3
Waxing Crescent
Oct 3
First Quarter
Oct 11
Full
Oct 19
Last Quarter
Oct 26
New

Hourly Weather History & Observations

Time (MDT) Temp. Windchill Dew Point Humidity Pressure Visibility Wind Dir Wind Speed Gust Speed Precip Events Conditions
12:15 AM 51.8 °F - 37.4 °F 58% 30.29 in 10.0 mi SE 12.7 mph - N/A   Clear
12:35 AM 50.0 °F - 35.6 °F 58% 30.29 in 10.0 mi SE 9.2 mph - N/A   Clear
12:55 AM 50.0 °F - 37.4 °F 62% 30.29 in 10.0 mi SE 10.4 mph - N/A   Clear
1:15 AM 50.0 °F - 37.4 °F 62% 30.29 in 10.0 mi SSE 9.2 mph - N/A   Clear
1:35 AM 51.8 °F - 37.4 °F 58% 30.29 in 10.0 mi SE 9.2 mph - N/A   Clear
1:55 AM 48.2 °F - 37.4 °F 66% 30.29 in 10.0 mi South 10.4 mph - N/A   Clear
2:15 AM 48.2 °F - 37.4 °F 66% 30.30 in 10.0 mi SSE 11.5 mph - N/A   Clear
2:35 AM 48.2 °F - 37.4 °F 66% 30.30 in 10.0 mi SSE 6.9 mph - N/A   Clear
2:55 AM 46.4 °F 41.9 °F 37.4 °F 71% 30.29 in 10.0 mi SSE 9.2 mph - N/A   Clear
3:15 AM 46.4 °F 41.5 °F 35.6 °F 66% 30.29 in 10.0 mi SSE 10.4 mph - N/A   Clear
3:35 AM 46.4 °F 41.5 °F 35.6 °F 66% 30.29 in 10.0 mi SSE 10.4 mph - N/A   Clear
3:55 AM 46.4 °F 41.5 °F 35.6 °F 66% 30.29 in 10.0 mi SE 10.4 mph - N/A   Clear
4:15 AM 46.4 °F 41.5 °F 35.6 °F 66% 30.29 in 10.0 mi SSE 10.4 mph - N/A   Clear
4:35 AM 46.4 °F 41.5 °F 35.6 °F 66% 30.29 in 10.0 mi SE 10.4 mph - N/A   Clear
4:55 AM 46.4 °F 41.1 °F 35.6 °F 66% 30.30 in 10.0 mi SE 11.5 mph - N/A   Clear
5:15 AM 44.6 °F 38.4 °F 35.6 °F 71% 30.30 in 10.0 mi SE 12.7 mph - N/A   Clear
5:35 AM 46.4 °F 41.1 °F 35.6 °F 66% 30.30 in 10.0 mi SSE 11.5 mph - N/A   Clear
5:55 AM 44.6 °F 39.7 °F 35.6 °F 71% 30.31 in 10.0 mi SE 9.2 mph - N/A   Clear
6:15 AM 44.6 °F 39.7 °F 35.6 °F 71% 30.30 in 10.0 mi SSE 9.2 mph - N/A   Clear
6:35 AM 44.6 °F 39.7 °F 35.6 °F 71% 30.31 in 10.0 mi SE 9.2 mph - N/A   Clear
6:55 AM 44.6 °F 38.8 °F 35.6 °F 71% 30.31 in 10.0 mi SSE 11.5 mph - N/A   Partly Cloudy
7:15 AM 44.6 °F 39.2 °F 35.6 °F 71% 30.31 in 10.0 mi SSE 10.4 mph - N/A   Partly Cloudy
7:35 AM 44.6 °F 38.4 °F 35.6 °F 71% 30.32 in 10.0 mi SSE 12.7 mph - N/A   Clear
7:55 AM 46.4 °F 40.4 °F 35.6 °F 66% 30.32 in 10.0 mi SE 13.8 mph - N/A   Clear
8:15 AM 46.4 °F 41.1 °F 35.6 °F 66% 30.32 in 10.0 mi SSE 11.5 mph - N/A   Clear
8:35 AM 48.2 °F - 35.6 °F 62% 30.32 in 10.0 mi SSE 10.4 mph - N/A   Clear
8:55 AM 48.2 °F - 37.4 °F 66% 30.32 in 10.0 mi SE 8.1 mph - N/A   Clear
9:55 AM 55.4 °F - 37.4 °F 51% 30.31 in 10.0 mi SSE 10.4 mph - N/A   Clear
10:15 AM 59.0 °F - 37.4 °F 45% 30.30 in 10.0 mi SSE 9.2 mph - N/A   Clear
10:35 AM 60.8 °F - 37.4 °F 42% 30.30 in 10.0 mi SSE 9.2 mph - N/A   Clear
10:55 AM 62.6 °F - 39.2 °F 42% 30.29 in 10.0 mi SSE 4.6 mph - N/A   Clear
11:15 AM 64.4 °F - 39.2 °F 40% 30.28 in 10.0 mi SE 4.6 mph - N/A   Clear
11:35 AM 66.2 °F - 39.2 °F 37% 30.27 in 10.0 mi East 4.6 mph - N/A   Clear
12:15 PM 69.8 °F - 37.4 °F 31% 30.25 in 10.0 mi NNE 3.5 mph - N/A   Clear
12:35 PM 69.8 °F - 37.4 °F 31% 30.24 in 10.0 mi Calm Calm - N/A   Clear
12:55 PM 69.8 °F - 37.4 °F 31% 30.23 in 9.0 mi SW 4.6 mph - N/A   Clear
1:15 PM 69.8 °F - 35.6 °F 28% 30.21 in 10.0 mi West 3.5 mph - N/A   Clear
1:35 PM 69.8 °F - 37.4 °F 31% 30.21 in 10.0 mi NW 5.8 mph - N/A   Mostly Cloudy
1:55 PM 66.2 °F - 35.6 °F 32% 30.22 in 10.0 mi WSW 18.4 mph 29.9 mph N/A   Overcast
2:15 PM 66.2 °F - 35.6 °F 32% 30.21 in 10.0 mi NNW 6.9 mph - N/A   Overcast
2:35 PM 66.2 °F - 35.6 °F 32% 30.19 in 10.0 mi NW 8.1 mph - N/A   Overcast
2:55 PM 69.8 °F - 37.4 °F 31% 30.19 in 10.0 mi North 5.8 mph - N/A   Mostly Cloudy
3:15 PM 69.8 °F - 35.6 °F 28% 30.18 in 10.0 mi NE 6.9 mph - N/A   Partly Cloudy
3:35 PM 71.6 °F - 35.6 °F 27% 30.17 in 10.0 mi NNE 5.8 mph - N/A   Clear
4:15 PM 71.6 °F - 35.6 °F 27% 30.15 in 10.0 mi North 5.8 mph - N/A   Partly Cloudy
4:35 PM 71.6 °F - 35.6 °F 27% 30.15 in 10.0 mi North 4.6 mph - N/A   Clear
4:55 PM 71.6 °F - 35.6 °F 27% 30.15 in 10.0 mi NNE 5.8 mph - N/A   Clear
5:15 PM 73.4 °F - 33.8 °F 23% 30.15 in 10.0 mi Calm Calm - N/A   Mostly Cloudy
5:35 PM 71.6 °F - 33.8 °F 25% 30.15 in 10.0 mi SSE 8.1 mph - N/A   Overcast
6:35 PM 66.2 °F - 37.4 °F 35% 30.14 in 10.0 mi South 9.2 mph - N/A   Overcast
6:55 PM 66.2 °F - 37.4 °F 35% 30.15 in 10.0 mi West 8.1 mph 16.1 mph N/A   Overcast
7:35 PM 66.2 °F - 35.6 °F 32% 30.15 in 10.0 mi WSW 17.3 mph 23.0 mph N/A   Overcast
7:55 PM 66.2 °F - 35.6 °F 32% 30.15 in 10.0 mi NW 6.9 mph 20.7 mph N/A   Overcast
8:15 PM 66.2 °F - 35.6 °F 32% 30.15 in 10.0 mi NW 11.5 mph 23.0 mph N/A   Overcast
8:35 PM 64.4 °F - 37.4 °F 37% 30.17 in 10.0 mi SSW 8.1 mph - N/A   Overcast
8:55 PM 60.8 °F - 39.2 °F 45% 30.19 in 10.0 mi West 12.7 mph 19.6 mph N/A   Overcast
9:15 PM 59.0 °F - 39.2 °F 48% 30.20 in 10.0 mi NW 8.1 mph 17.3 mph N/A   Mostly Cloudy
9:35 PM 60.8 °F - 41.0 °F 48% 30.20 in 10.0 mi NNW 8.1 mph - N/A   Mostly Cloudy
9:55 PM 59.0 °F - 39.2 °F 48% 30.21 in 10.0 mi NW 6.9 mph - N/A   Overcast
10:15 PM 57.2 °F - 42.8 °F 59% 30.22 in 10.0 mi North 4.6 mph - N/A   Overcast
10:35 PM 55.4 °F - 42.8 °F 63% 30.21 in 10.0 mi NE 10.4 mph - N/A   Overcast
10:55 PM 53.6 °F - 44.6 °F 72% 30.19 in 10.0 mi East 13.8 mph - N/A   Mostly Cloudy
11:15 PM 53.6 °F - 46.4 °F 77% 30.18 in 10.0 mi East 9.2 mph - N/A   Mostly Cloudy
11:35 PM 51.8 °F - 44.6 °F 76% 30.18 in 10.0 mi ESE 4.6 mph - N/A   Partly Cloudy
11:55 PM 51.8 °F - 44.6 °F 76% 30.18 in 10.0 mi West 3.5 mph - N/A   Mostly Cloudy